Regional Weather Roundup
Issued by NWS

Home | Current Version | Previous Version | Graphics & Text | Print | Product List | Glossary On
Versions: 1 2 3 4 5 6 7 8 9 10 11 12 13 14 15 16 17 18 19 20 21 22 23 24 25 26 27 28 29 30 31 32 33 34 35 36 37 38 39 40 41 42 43 44 45 46 47 48 49 50
000
ASUS45 KTFX 191010
RWRMT
MONTANA REGIONAL WEATHER ROUNDUP
NATIONAL WEATHER SERVICE GREAT FALLS MT
400 AM MDT SAT AUG 19 2017

NOTE: "FAIR" INDICATES FEW OR NO CLOUDS BELOW 12000 FEET WITH NO
SIGNIFICANT WEATHER AND/OR OBSTRUCTIONS TO VISIBILITY.

MTZ001>007-043-191100-
WEST OF THE DIVIDE

CITY           SKY/WX    TMP DP  RH WIND       PRES   REMARKS
KALISPELL        N/A     54  39  57 SW6       29.94S
MISSOULA         N/A     60  35  39 CALM      30.00R
BUTTE          CLOUDY    51  26  37 S6        30.10S
MULLAN PASS      N/A     54  35  48 SW9       30.11F
ANACONDA         N/A     61  30  31 NE3       30.07R
EUREKA           N/A     61  37  41 MISG        N/A
HAMILTON         N/A     66  37  34 S3        30.01S
LIBBY            N/A     57  37  47 SW3       29.90S
RONAN            N/A     53  38  56 CALM      30.03S
$$

MTZ008-052>055-191100-
SOUTHWEST MONTANA

CITY           SKY/WX    TMP DP  RH WIND       PRES   REMARKS
BOZEMAN        CLOUDY    49  38  65 CALM      30.03R
DILLON         CLOUDY    55  34  45 W8        30.06S
W YELLOWSTONE  CLOUDY    39  34  81 CALM      30.19F
ENNIS          CLOUDY    59  34  38 SE7       30.11F
THREE FORKS      N/A     47  39  73 CALM      30.01R
$$

MTZ009-010-012-014-046-048-049-054-191100-
EAST SLOPES AND CENTRAL MONTANA

CITY           SKY/WX    TMP DP  RH WIND       PRES   REMARKS
CUT BANK         N/A     65  35  33 NW14      29.92R
GREAT FALLS    CLOUDY    70  28  21 SW14      29.91R
MALMSTROM AFB  CLOUDY    72  31  21 SW14      29.90R
HELENA         CLOUDY    68  33  27 NW7       30.00R
AUGUSTA          N/A     66  21  17 MISG      29.96R
BOWMANS CRNR     N/A     63  28  27 SW12      29.95S
CHOTEAU          N/A     70  27  19 W13       29.95R
FAIRFIELD        N/A     64  29  26 W6        29.93R
POWER            N/A     61  31  32 W9        29.92R
RAYNESFORD     MOCLDY    75  27  17 W20G30    29.93R
ULM            MOCLDY    71  29  21 SW12      29.92S
$$

MTZ011-013-016-021-045-047-050-051-191100-
NORTH CENTRAL MONTANA

CITY           SKY/WX    TMP DP  RH WIND       PRES   REMARKS
HAVRE          MOCLDY    64  34  32 W7        29.80R
LEWISTOWN      CLOUDY    59  31  34 SE3       29.94R
N BAR RANCH    CLOUDY    59  27  29 SW5       29.97S
CHINOOK          N/A     64  37  36 W5        29.77F
DENTON           N/A     74  27  17 W20       29.85S
GEYSER           N/A     69  27  20 W13       29.93R
GRASS RANGE      N/A     67  27  22 SW15      29.88R
JUDITH GAP     MOCLDY    65  29  25 W12       29.98S
WINIFRED       MOCLDY    69  28  22 S5        29.88S
$$

MTZ017>020-022>027-061-062-191100-
NORTHEAST MONTANA

CITY           SKY/WX    TMP DP  RH WIND       PRES   REMARKS
GLASGOW        CLOUDY    61  41  47 SE5       29.74R
JORDAN           N/A     56  31  38 NW9       29.79R
SIDNEY         PTCLDY    61  50  67 S6        29.77F
WOLF POINT     PTCLDY    60  45  57 CALM      29.74S
MALTA          CLOUDY    54  43  66 W7        29.76S
PLENTYWOOD       N/A     63  52  67 SE6       29.74F
POPLAR           N/A     57  48  72 N3        29.74F
$$

MTZ028>42-056>058-191100-
SOUTHCENTRAL AND SOUTHEAST MONTANA

CITY           SKY/WX    TMP DP  RH WIND       PRES   REMARKS
BAKER          CLEAR     55  44  66 SE7       29.85S
BILLINGS       PTCLDY    67  29  24 SW13      29.91R
LIVINGSTON     CLOUDY    52  33  48 NW8       30.01S
MILES CITY     CLEAR     63  29  27 SE10      29.80R
BIG TIMBER     PTCLDY    66  32  28 SW16      30.01R
HARLOWTON      MOCLDY    69  28  22 MISG      29.96S
LAUREL           N/A     62  34  35 W1        29.92S
$$

REGIONAL REPORTS...DAKOTAS

CITY           SKY/WX    TMP DP  RH WIND       PRES   REMARKS
WILLISTON      CLEAR     64  53  67 S5        29.77F
MINOT          CLEAR     69  54  58 S14G25    29.80F
DICKINSON      CLEAR     59  52  77 SE10      29.82F
BEACH          CLOUDY    59  48  67 S10       29.84F
CROSBY           N/A     64  52  63 S16       29.75F
TIOGA            N/A     59  57  94 S6        29.81F
WATFORD CITY     N/A     63  50  63 S6        29.79F
BISMARCK       CLEAR     59  55  87 NE5       29.87F
GRAND FORKS    CLEAR     56  54  93 SW7       29.83S
FARGO          CLEAR     59  57  93 S8        29.87S
BUFFALO SD       N/A     59  48  67 S7        29.80F
RAPID CITY     CLEAR     57  49  74 SE8       29.91F
$$

REGIONAL REPORTS...WYOMING/IDAHO/WASHINGTON

CITY           SKY/WX    TMP DP  RH WIND       PRES   REMARKS
GILLETTE       CLEAR     66  41  40 S15       29.94F
SHERIDAN       CLEAR     56  41  57 S7        29.92S
BUFFALO WY     CLEAR     66  31  27 W5        29.99F
CODY           CLEAR     70  31  23 SW3       30.03F
YELLOWSTONE LA   N/A     37  34  89 NW3       30.29F
IDAHO FALLS    CLEAR     53  39  59 CALM      30.07S
SALMON         CLOUDY    51  40  65 CALM      30.06R
BOISE            N/A     66  36  32 CALM      29.99R
SPOKANE          N/A     59  46  62 SW10      29.97R
$$

REGIONAL REPORTS...ALBERTA

CITY           SKY/WX    TMP DP  RH WIND       PRES   REMARKS
EDMONTON       CLEAR     48  43  81 W9        29.86R
CALGARY        MOCLDY    52  43  71 NW9       29.97R
LETHBRIDGE     CLEAR     54  41  62 N18G25    29.97R
MEDICINE HAT   CLEAR     57  45  62 NW18      29.88R
$$

REGIONAL REPORTS...SASKATCHEWAN

CITY           SKY/WX    TMP DP  RH WIND       PRES   REMARKS
SWIFT CURRENT  CLEAR     66  41  39 W15G23    29.68R
REGINA         MOCLDY    61  46  59 S9        29.67S
SASKATOON      PTCLDY    57  50  77 NW8       29.61R
$$



USA.gov is the U.S. government's official web portal to all federal, state and local government web resources and services.